Wind_Speed
41 42 42 42 42 43 45 47 46 45 45 45 45 45 45 46 47 48 48 48 48 47 46 46 47 47 48 48 48 48 47 47 46 45 44 42 38 34 30 28 27 26 23 21 22 23 24 24 22 21 20 19 18 17 17 18 17 16 14 15 17 18 19 18 18 18 19 19 20 21 22 23 23 23 24 25 25 24 23 22 21 20 19 18 17 16
43 43 43 43 43 43 45 47 47 46 46 46 47 47 47 47 49 50 52 52 52 50 48 47 47 49 50 50 49 48 48 47 46 45 44 42 38 33 30 29 28 25 22 21 22 24 25 24 23 22 21 20 19 19 19 19 19 18 16 16 17 18 19 19 19 19 20 21 22 23 24 24 24 25 25 26 26 25 23 22 20 19 18 17 17 17
46 45 45 46 46 46 46 47 47 46 46 46 46 46 47 48 50 52 54 56 56 55 52 49 48 48 51 52 51 49 48 47 46 45 44 42 37 32 29 29 27 24 22 21 22 24 25 25 24 22 21 20 20 20 20 20 20 19 18 17 17 18 19 19 20 21 22 23 25 26 26 26 26 26 25 25 24 23 21 19 18 18 17 18 18 17
43 43 43 44 44 44 43 43 43 42 42 42 43 43 44 46 49 51 54 55 56 56 54 51 48 48 50 52 52 50 48 46 45 45 44 40 34 30 29 28 26 23 21 22 23 25 25 25 24 23 21 21 21 21 21 21 20 20 19 19 18 18 19 20 21 22 24 25 27 27 26 26 25 24 23 22 21 20 19 18 17 17 17 17 17 16
37 37 37 37 37 37 37 36 36 37 37 37 38 39 41 43 46 49 51 53 54 54 52 50 49 48 50 52 52 51 49 46 45 45 43 37 32 28 28 27 25 23 22 22 24 25 26 25 24 23 22 21 21 22 22 22 21 21 20 20 20 21 22 23 24 25 26 27 28 27 25 24 22 21 20 19 19 18 18 17 17 17 17 17 16 15
33 32 32 32 32 32 32 32 31 32 32 33 34 35 38 40 43 46 49 50 51 51 50 50 49 50 51 53 54 52 49 46 45 43 40 34 30 28 27 26 25 23 22 23 24 26 26 26 25 24 23 22 22 22 23 23 22 21 21 21 21 23 24 25 26 27 28 28 28 27 25 23 22 20 20 19 19 18 17 17 16 16 16 16 15 14
32 31 31 31 31 31 31 30 30 30 30 31 32 33 36 38 41 45 47 48 49 49 49 49 50 51 52 54 54 52 48 46 44 41 36 32 29 28 27 26 25 24 23 24 25 26 26 26 25 24 24 23 22 23 23 24 23 22 21 21 22 23 25 25 26 27 28 28 28 27 26 24 23 22 21 20 19 18 17 16 16 16 16 16 15 14
32 32 32 32 32 32 31 31 30 30 30 30 31 33 35 37 39 42 44 45 46 46 47 48 49 50 51 52 52 50 47 45 42 38 34 32 30 29 27 26 25 24 24 24 25 26 26 26 26 25 24 23 23 23 24 24 24 23 22 22 22 22 24 25 26 26 27 27 27 27 26 25 24 23 22 21 19 18 17 16 16 16 16 16 15 14
32 33 33 34 33 32 32 31 31 30 30 30 31 32 34 36 39 40 42 43 44 44 44 45 47 48 49 49 48 47 46 44 41 38 35 33 32 30 28 26 25 25 24 25 25 26 26 26 26 26 25 24 23 23 24 24 23 23 23 22 22 22 23 24 26 26 27 27 27 26 26 25 24 24 23 21 20 19 17 17 16 16 16 16 15 14
31 32 33 34 33 33 32 31 31 30 30 30 30 31 33 35 38 40 40 41 41 41 42 43 44 45 46 46 45 45 44 42 39 37 36 35 33 32 29 27 26 25 25 25 25 25 26 26 27 26 25 24 24 24 24 24 23 23 23 22 22 22 23 24 25 26 27 27 27 26 26 25 25 24 23 22 21 19 18 17 17 16 16 15 15 14
31 32 33 33 33 32 31 31 30 30 29 29 30 31 32 33 36 39 40 40 39 39 39 40 42 43 44 44 43 43 42 41 38 36 36 35 34 32 29 27 26 25 24 24 24 25 26 27 27 26 25 24 24 24 24 23 22 22 22 22 22 22 22 23 25 26 27 27 26 26 25 25 24 24 23 22 21 19 18 17 16 16 16 15 15 14
31 32 32 32 32 31 31 30 30 29 29 29 30 31 32 33 34 36 38 40 39 38 38 39 41 43 43 44 44 44 43 41 40 39 38 38 36 33 30 28 26 25 24 24 25 26 27 28 27 26 25 24 24 24 23 22 22 21 21 22 22 22 22 23 24 25 26 26 26 26 25 25 24 23 23 22 20 19 17 17 16 16 16 15 15 14
31 31 32 32 31 31 30 30 30 29 29 30 31 32 32 32 32 33 36 38 39 39 39 40 41 43 44 44 45 45 44 43 42 41 40 39 38 35 32 30 28 26 25 25 26 28 29 29 27 25 24 24 24 23 22 22 21 21 21 21 22 22 22 23 24 24 25 25 25 25 24 24 23 23 22 21 19 18 17 16 16 16 16 15 15 14
31 31 31 31 30 30 30 30 30 31 31 30 30 31 31 31 31 32 34 36 38 39 39 41 42 43 44 45 45 45 45 45 43 42 41 39 38 36 34 32 30 28 27 27 29 30 30 29 26 24 23 23 23 22 21 21 21 21 21 21 22 22 22 22 23 23 24 24 24 24 23 22 22 21 21 20 19 18 17 16 16 16 15 15 14 14
31 31 30 30 30 30 30 30 31 31 30 30 30 30 30 30 31 32 34 35 37 38 40 42 43 44 44 45 45 46 46 45 44 42 40 38 37 36 34 32 30 28 28 29 30 31 31 28 25 23 22 22 22 21 21 21 21 21 21 21 22 22 22 22 22 22 23 23 23 22 22 21 21 21 20 20 19 17 16 16 16 15 15 15 14 13
31 30 30 30 30 30 30 30 30 30 29 29 29 30 31 32 33 33 34 36 38 39 41 43 44 44 44 45 46 46 45 45 44 42 40 38 37 35 33 31 30 29 29 30 31 31 30 26 23 21 21 21 21 21 21 21 21 21 21 21 21 22 22 22 22 22 22 22 22 21 21 20 20 20 20 19 18 17 16 16 15 15 15 14 14 13
31 30 30 29 29 30 30 29 29 29 29 29 30 31 32 33 33 34 35 37 39 41 43 45 45 44 44 45 45 46 45 44 43 41 39 38 37 35 33 31 30 29 29 30 31 31 29 25 22 21 21 21 21 20 20 20 21 21 21 21 21 21 21 21 21 21 21 21 21 21 20 20 20 20 20 19 18 17 16 15 15 15 15 14 14 14
30 30 29 29 28 28 29 29 28 28 29 30 31 31 32 32 33 35 36 38 41 43 46 47 47 47 46 45 45 46 45 44 43 41 39 37 36 35 33 31 29 28 29 30 31 31 28 25 22 21 21 21 21 20 20 20 21 21 21 21 21 21 21 21 21 21 21 21 20 20 20 20 20 20 19 18 17 16 15 15 16 15 15 14 14 14
30 30 28 27 27 27 27 28 28 28 29 29 30 31 32 33 34 36 38 40 42 44 47 48 49 49 49 49 48 48 46 44 42 40 39 38 36 34 32 31 29 29 29 31 31 31 29 26 23 22 22 21 21 20 20 20 21 21 21 21 21 21 21 20 20 20 20 20 20 20 20 20 20 19 19 18 17 16 15 16 16 15 14 14 15 15
30 29 28 26 25 25 25 25 25 26 27 27 28 30 31 33 35 37 39 41 42 44 46 49 50 50 50 50 50 49 46 44 42 40 39 37 36 33 31 30 29 29 30 31 32 31 29 27 25 24 23 22 21 20 20 20 20 21 21 21 21 21 20 20 20 20 19 19 19 19 19 19 19 19 18 17 16 15 15 16 16 15 14 15 16 17
30 29 27 24 23 23 23 22 22 23 24 25 27 29 31 33 35 38 40 42 43 45 46 49 50 50 51 51 49 48 45 43 42 40 39 37 35 33 31 29 29 29 30 31 32 31 30 29 27 26 24 23 22 21 20 20 20 21 21 21 21 21 20 20 19 19 19 19 19 19 19 19 19 19 18 17 16 15 16 16 15 15 15 16 17 18
30 28 25 23 21 20 19 18 19 20 21 24 27 29 31 33 36 39 41 43 44 46 47 47 47 49 50 49 47 45 43 42 41 41 40 38 35 33 30 29 29 29 30 31 31 31 31 30 28 27 25 24 23 21 20 20 20 21 21 21 21 21 20 20 19 19 19 18 18 18 18 18 18 18 18 17 16 16 16 16 15 15 16 17 18 20
29 27 25 22 19 17 16 16 16 18 19 22 24 27 30 33 36 39 41 43 45 46 47 48 48 48 48 46 45 43 41 41 42 42 40 37 35 33 30 29 29 29 30 31 31 31 31 30 29 28 27 25 24 23 21 21 21 21 21 21 21 21 20 20 19 19 18 18 18 18 18 18 18 18 17 16 16 16 16 16 16 16 17 18 20 21
28 26 24 21 18 15 14 14 15 16 17 19 21 23 26 29 33 36 38 41 44 46 46 47 47 46 44 44 43 43 43 43 44 43 40 35 32 30 30 29 30 30 30 31 31 31 31 30 29 29 27 26 25 24 23 22 21 21 21 21 21 21 21 20 20 19 18 18 18 18 18 18 18 18 17 16 16 16 16 16 16 17 19 20 21 23
27 25 23 20 17 15 14 14 14 14 14 15 17 20 24 28 32 35 38 41 44 45 46 46 44 42 42 43 43 44 45 45 45 43 39 33 30 29 30 29 30 31 31 30 31 31 31 30 30 29 28 27 26 25 24 23 22 22 22 22 22 22 21 21 20 19 18 18 18 18 18 18 18 17 17 17 17 17 17 17 18 19 20 22 23 24
26 24 22 20 18 16 14 14 13 13 12 12 13 16 20 25 31 36 39 41 43 44 44 43 42 42 42 42 42 43 44 45 44 42 37 32 29 28 29 29 30 31 31 31 31 31 31 30 30 29 28 28 27 26 25 24 24 23 23 23 23 22 22 21 20 19 19 18 18 18 18 18 18 17 17 17 17 17 18 18 19 21 23 24 25 26
25 24 22 20 18 17 16 15 15 14 13 12 13 13 15 20 27 35 38 40 42 43 42 41 41 41 41 40 40 41 43 43 43 40 36 31 29 28 29 29 30 31 31 31 31 31 31 31 30 29 29 29 28 28 26 25 25 24 24 23 23 23 22 21 21 20 19 19 18 18 18 18 18 17 17 17 18 18 19 19 21 23 25 26 27 27
26 24 23 21 20 19 18 17 17 16 15 15 14 14 14 16 22 31 37 39 41 41 41 40 40 40 39 39 39 40 41 42 42 39 34 30 29 28 29 30 31 31 32 32 32 31 31 31 31 30 30 29 29 29 28 27 26 25 25 24 24 23 22 22 21 20 20 19 19 18 18 18 18 18 18 18 18 19 20 21 23 25 27 28 29 30
27 25 24 23 22 21 21 20 19 18 18 17 17 17 15 15 17 23 30 34 38 40 40 40 40 40 40 40 40 39 39 40 40 37 32 30 30 29 29 30 31 32 32 32 32 31 31 31 31 31 31 30 30 30 29 28 27 26 26 25 25 24 23 22 22 21 20 19 19 19 19 18 18 18 18 18 19 20 21 23 25 27 29 30 31 31
28 27 26 26 25 24 24 23 22 21 20 20 19 19 18 16 16 17 21 28 34 38 39 40 40 41 41 41 40 38 38 39 37 34 31 31 31 31 30 31 32 32 31 31 31 31 31 32 32 32 31 31 31 31 31 30 29 28 27 26 25 24 23 23 22 21 20 20 19 19 19 19 18 18 18 19 20 21 22 24 27 28 30 31 32 32
28 28 28 28 28 27 26 25 24 23 22 22 21 21 20 19 18 18 20 25 30 34 36 37 38 40 41 41 39 38 38 37 35 32 30 31 31 32 32 32 32 32 31 31 31 32 33 32 32 32 32 32 32 32 32 31 30 29 28 27 26 25 24 23 22 22 21 20 20 19 19 19 19 18 19 20 21 22 24 26 27 29 31 32 33 32
27 28 29 29 29 29 28 27 26 25 25 24 24 23 23 22 22 22 23 25 28 30 32 33 35 37 38 38 37 36 35 34 33 32 31 32 32 32 32 32 32 31 31 30 30 31 32 33 32 32 32 33 33 33 33 32 31 30 29 28 26 25 24 24 23 22 21 21 20 20 20 20 19 19 19 20 21 23 25 26 28 29 31 32 33 33
27 28 30 31 31 30 29 29 28 27 27 27 26 26 26 25 25 25 26 27 29 30 31 32 33 34 35 35 33 32 31 31 31 32 32 32 32 32 32 32 32 31 31 31 30 31 31 32 32 31 32 33 33 34 33 33 32 31 30 29 27 26 25 24 23 23 22 21 21 21 21 20 20 20 20 21 22 24 25 27 28 30 31 32 33 33
27 29 31 32 32 32 31 30 30 29 29 29 29 28 28 28 28 28 29 30 31 32 33 33 33 33 34 34 33 31 31 30 31 31 32 32 32 31 31 31 31 31 31 31 31 31 31 31 31 31 32 32 33 34 34 34 33 33 31 30 28 27 26 25 24 23 22 22 21 21 21 21 21 20 21 21 23 24 26 27 28 30 31 33 34 34
27 30 32 33 34 34 33 32 32 31 31 31 31 30 30 30 30 30 31 32 33 33 34 34 34 33 33 32 32 31 31 30 30 31 31 31 30 29 29 29 29 29 30 31 31 31 32 32 32 32 32 32 33 34 34 34 34 34 33 31 30 28 27 26 25 24 23 22 22 22 22 22 21 21 21 22 23 24 26 27 28 30 32 33 34 34
28 30 32 34 35 35 35 34 33 33 33 32 32 32 32 32 32 32 32 33 33 34 33 33 32 31 30 29 29 28 28 28 28 29 29 28 28 27 27 27 27 27 28 29 30 30 32 32 32 31 32 33 34 35 35 35 35 34 33 32 31 30 28 27 26 25 24 23 23 23 23 22 22 22 22 22 23 25 26 27 28 30 31 33 34 35
29 31 33 35 37 37 37 36 35 35 34 34 34 34 33 33 33 33 33 33 32 32 31 30 29 28 27 26 26 25 25 25 25 26 27 26 26 26 26 26 26 26 27 27 28 30 31 31 32 32 32 34 35 36 36 36 36 35 35 34 32 31 30 28 27 26 25 24 24 23 23 23 22 22 22 23 23 25 26 27 28 29 31 32 34 34
30 32 34 36 37 38 38 38 37 36 36 36 35 35 34 34 33 32 32 31 31 30 28 27 26 25 25 25 25 24 23 23 24 25 25 25 25 25 26 26 26 26 27 27 27 28 30 31 33 34 34 34 35 36 37 37 37 36 36 34 33 32 31 29 28 27 26 25 24 24 24 23 23 23 23 23 24 25 27 28 28 29 31 32 33 34
32 33 34 36 38 39 39 39 38 38 37 37 37 36 35 34 33 32 31 31 30 28 27 26 25 24 25 25 25 25 25 24 24 25 25 26 26 26 26 27 27 28 28 28 28 28 29 30 32 33 34 35 35 36 36 37 37 36 35 35 34 33 32 31 29 28 27 26 25 24 24 24 23 23 24 24 25 26 27 28 29 30 31 32 33 34
33 33 35 36 37 38 39 39 39 38 38 38 37 36 36 35 34 33 32 31 30 29 28 26 26 25 25 26 26 27 27 26 26 26 26 26 27 27 28 28 28 29 29 29 29 29 29 29 30 31 32 33 35 35 35 36 36 36 35 35 35 35 34 32 31 29 28 27 26 25 25 25 24 24 24 25 26 27 28 29 30 30 31 32 33 33
34 34 35 35 36 37 38 39 39 39 39 39 38 37 37 36 35 34 33 32 31 30 29 28 27 27 27 27 27 28 28 27 27 27 27 27 27 28 28 29 28 29 29 29 29 29 28 28 29 30 30 32 33 34 34 34 35 35 36 36 36 35 34 33 32 30 29 28 27 26 26 25 25 25 25 26 26 27 28 29 29 30 31 32 32 33
35 35 35 35 36 37 38 38 39 39 39 39 38 38 38 37 36 35 34 33 32 31 30 29 28 28 28 28 28 28 28 28 28 28 28 27 27 28 28 28 28 28 28 28 28 28 28 28 28 29 30 31 32 33 33 33 33 34 35 35 35 34 33 33 32 31 30 29 28 27 27 26 26 26 26 26 27 27 28 28 29 29 30 31 32 32
36 35 35 35 36 37 37 38 39 39 39 39 38 38 38 38 37 36 35 34 34 33 32 31 31 30 29 29 29 29 29 29 29 28 28 27 27 28 28 28 28 27 27 27 27 27 27 27 27 28 29 30 30 31 32 32 33 34 34 35 35 35 35 35 34 32 31 30 29 28 28 27 27 27 27 27 27 28 28 29 29 29 30 31 31 31
36 35 35 36 36 36 37 37 38 39 39 39 39 38 38 38 38 37 36 35 35 34 33 33 32 31 31 30 30 30 29 29 28 28 28 27 27 27 27 27 27 27 27 27 26 27 27 27 28 29 29 29 29 29 30 30 31 33 34 34 34 35 36 35 34 33 32 31 30 29 29 28 28 27 27 27 28 28 29 30 30 30 30 31 31 30
36 36 36 36 36 36 36 37 38 38 39 39 39 39 38 38 38 38 37 37 36 35 35 34 34 33 32 32 32 31 30 29 28 28 28 28 27 27 26 26 26 26 26 26 26 27 27 27 28 29 29 28 28 29 29 29 30 31 32 33 33 33 33 33 32 32 31 31 31 30 29 29 28 28 28 28 29 29 30 30 30 30 30 31 31 30
37 37 37 37 36 36 36 36 37 38 39 39 40 39 39 39 39 39 39 38 37 36 36 36 35 35 34 34 34 32 31 30 29 28 28 28 28 28 27 26 25 25 24 25 25 25 26 26 27 28 29 29 29 29 29 29 29 29 30 31 32 32 32 32 32 32 31 31 30 30 29 29 29 29 29 29 30 30 31 31 31 31 31 31 31 30
38 37 37 37 36 36 36 36 37 37 39 39 40 40 40 40 40 39 39 38 38 37 37 36 36 36 36 36 35 34 33 32 31 31 30 30 29 28 28 27 26 25 24 24 24 24 24 25 25 26 27 29 30 30 30 29 29 29 29 30 31 31 32 33 32 32 31 31 30 30 29 29 29 30 31 31 31 31 32 32 32 31 31 31 31 30
38 38 37 37 36 36 37 37 37 38 39 40 40 41 41 41 40 40 40 39 38 38 37 37 37 37 37 36 35 35 34 34 34 33 32 32 31 30 29 28 28 27 26 25 25 24 24 24 24 25 26 27 29 30 31 30 29 29 28 28 29 29 30 31 31 31 30 30 30 29 29 29 30 31 31 31 32 32 32 32 32 32 32 31 31 30
38 38 37 37 37 37 37 38 38 38 39 40 40 41 41 41 41 41 40 40 39 39 39 39 38 38 37 37 36 35 35 35 35 34 34 33 33 32 31 30 29 28 27 26 25 25 25 25 25 25 26 26 27 28 29 29 29 29 28 27 27 28 28 29 29 30 30 30 30 29 29 29 29 30 31 32 32 33 33 33 33 33 32 32 31 31
39 38 37 37 37 38 38 38 38 39 40 40 41 41 42 42 42 41 41 41 40 40 40 39 39 39 38 38 37 36 36 36 36 36 35 35 34 33 32 31 30 29 28 27 26 26 26 26 26 26 27 27 27 28 28 28 28 28 28 28 27 27 27 28 28 29 29 29 29 29 29 29 29 30 31 32 33 33 34 34 34 33 33 32 32 31
39 38 38 37 37 38 38 38 39 39 40 40 41 41 42 42 43 43 42 42 41 41 40 40 40 39 39 38 38 37 37 37 37 37 37 36 35 35 34 33 32 31 30 29 28 28 27 27 27 27 28 28 29 29 29 28 28 28 28 29 28 28 28 27 27 28 28 28 29 29 29 29 30 30 31 33 34 34 35 35 35 34 33 33 32 32
Wind_Direction
264 265 265 264 264 264 266 267 268 268 268 267 266 262 259 255 253 253 253 253 253 254 256 256 254 251 248 246 243 237 230 224 219 215 213 211 209 208 208 211 214 216 219 223 230 234 235 234 231 228 225 223 221 217 216 220 225 225 219 216 217 219 220 224 228 230 231 232 233 234 237 239 242 243 244 245 246 246 247 248 250 254 257 261 267 277
267 267 266 266 266 267 268 269 269 270 270 269 268 265 261 258 256 255 255 256 257 259 261 261 259 254 249 245 241 234 227 221 216 213 212 210 207 205 205 208 211 212 214 220 227 232 233 232 230 227 224 222 221 219 217 219 223 226 225 221 219 219 221 226 232 238 241 243 244 244 245 246 246 246 245 244 243 243 243 245 249 255 262 269 277 286
269 268 268 268 269 270 271 272 272 272 272 272 270 268 265 263 261 260 260 260 261 263 264 263 260 254 247 241 235 228 222 217 213 211 211 209 206 203 204 206 207 208 211 218 225 230 232 231 230 227 225 223 222 221 219 219 222 226 229 228 225 224 224 226 231 236 240 243 244 244 244 243 243 241 240 239 239 239 241 246 253 261 269 276 283 289
270 270 271 272 273 273 273 274 274 274 273 273 271 270 268 266 265 264 264 264 264 265 265 263 259 252 245 237 230 224 219 213 210 209 210 208 204 201 202 204 204 205 209 217 224 229 230 230 229 227 226 225 224 223 221 220 221 224 228 231 231 230 229 229 231 233 236 237 237 236 234 233 233 233 234 234 237 240 245 253 260 268 274 279 284 288
272 273 275 276 276 276 276 276 275 274 274 272 271 269 268 267 266 265 265 264 264 263 262 260 256 249 242 234 228 222 217 211 209 208 208 205 202 201 202 203 203 204 208 216 223 227 229 229 228 228 227 227 226 224 223 221 221 222 225 228 230 231 231 231 231 232 233 233 232 230 229 229 230 232 235 238 242 247 254 261 266 271 275 279 283 285
273 274 276 277 278 278 278 278 277 276 276 274 272 270 268 267 265 263 261 260 259 259 257 254 250 245 239 233 227 222 216 211 208 206 204 201 200 201 202 203 202 203 208 216 222 226 227 228 228 228 229 229 228 226 223 222 221 222 224 226 227 228 227 228 229 230 232 232 231 231 232 234 237 241 245 249 253 257 261 266 270 273 275 277 279 280
272 273 274 275 276 277 279 280 280 280 279 277 275 272 269 266 263 260 258 256 255 253 251 247 244 239 235 230 226 220 214 209 206 203 199 197 198 201 204 203 201 202 208 215 220 223 225 226 227 228 229 230 229 226 223 221 221 221 223 225 227 226 225 224 226 228 231 232 233 234 237 241 246 251 255 258 260 263 267 269 271 272 273 274 274 273
270 271 272 273 274 275 277 279 280 281 280 278 275 272 268 265 262 258 255 253 251 247 243 239 235 232 228 225 222 216 210 205 201 198 194 195 198 202 204 202 201 203 208 214 218 221 224 226 227 229 230 230 228 225 222 220 220 220 222 225 226 226 225 224 225 228 232 234 236 239 242 247 252 256 259 262 264 267 269 270 270 269 269 269 268 266
267 269 270 271 272 274 276 278 279 279 280 278 274 270 267 263 260 256 252 248 245 241 237 232 228 225 222 220 216 211 205 201 196 192 191 193 198 202 203 201 200 203 208 212 216 219 222 226 229 230 231 230 227 224 221 219 218 219 221 223 225 226 226 225 226 229 233 237 240 243 247 251 254 257 259 262 264 266 268 267 266 265 263 262 262 260
265 266 268 270 271 273 275 278 278 278 278 278 275 271 267 262 256 252 247 243 239 236 233 228 223 219 217 214 210 205 202 197 193 191 191 194 197 200 201 199 199 202 206 210 213 217 222 227 230 231 231 229 225 222 219 218 218 218 220 221 223 224 224 225 226 228 233 237 241 245 248 251 254 256 258 260 262 264 264 263 261 259 257 256 256 254
265 266 267 269 270 271 273 276 276 277 277 277 274 271 267 261 255 249 243 239 236 232 227 223 219 215 210 207 204 201 199 196 194 193 195 196 198 199 199 198 199 202 205 208 212 217 223 228 231 232 230 227 223 220 218 217 217 218 219 220 221 222 222 223 225 227 231 235 239 243 246 249 251 254 256 258 260 261 260 258 255 253 252 251 251 250
267 267 268 269 271 272 273 275 275 275 275 273 268 262 259 258 256 251 244 239 234 228 221 216 213 210 207 203 201 200 199 197 197 198 199 199 198 198 197 197 199 201 204 206 211 217 223 228 231 231 228 224 220 218 217 217 217 218 219 220 220 221 221 222 223 226 229 233 237 240 244 246 249 252 254 256 258 257 255 252 249 248 247 248 248 246
269 269 270 271 272 273 274 275 274 274 273 269 264 260 257 257 256 252 246 240 234 227 220 213 208 206 204 202 200 200 199 199 199 200 201 199 197 196 195 196 198 200 203 206 210 217 223 227 229 228 224 220 218 217 217 217 217 218 220 221 221 221 221 221 223 225 228 231 234 238 241 245 248 251 254 255 256 254 251 248 245 244 244 245 245 242
269 270 271 272 273 273 273 273 273 273 271 269 268 267 265 261 256 250 243 236 231 226 219 211 205 203 201 201 201 201 200 200 201 201 201 200 198 196 195 196 198 201 204 207 212 217 222 226 226 224 220 218 217 217 217 217 218 219 220 222 222 222 221 222 224 226 228 231 234 237 241 244 248 251 253 254 253 251 247 244 242 242 243 243 241 238
268 269 271 272 272 272 272 272 272 272 271 271 270 268 263 258 252 246 238 229 224 219 213 207 203 201 200 200 201 202 201 201 201 201 200 200 198 197 197 198 200 202 206 210 214 218 223 225 224 220 218 217 217 217 217 217 218 219 221 223 224 223 223 223 225 227 229 232 235 238 242 245 247 250 251 251 250 247 244 242 241 241 241 240 237 232
268 269 270 271 272 272 272 271 271 271 271 271 268 263 257 251 247 241 233 226 220 214 207 202 200 199 199 200 202 202 202 202 202 201 200 199 199 198 198 200 201 204 208 212 215 219 223 224 222 219 218 218 219 219 218 218 218 220 221 223 224 224 223 224 225 228 230 233 237 240 242 244 246 247 248 248 247 245 242 241 240 240 239 236 231 225
267 268 269 270 271 272 272 271 271 270 269 267 264 260 256 251 245 239 231 225 219 212 206 201 197 195 195 198 201 203 203 203 202 202 200 200 199 199 200 202 203 205 210 213 216 219 222 223 220 218 219 220 221 221 220 219 219 220 222 223 224 224 224 224 226 228 231 234 237 240 242 243 244 245 246 246 245 243 241 241 240 239 236 231 225 217
265 266 268 269 270 271 271 271 270 268 267 264 261 259 256 250 243 236 229 224 218 212 207 203 200 196 194 194 197 202 204 203 202 201 200 200 200 200 201 203 205 208 211 214 216 219 221 222 221 220 221 222 223 222 221 220 220 220 222 223 224 224 224 225 226 229 231 234 237 239 241 242 243 244 244 244 243 242 241 240 239 237 232 226 218 210
264 265 266 268 270 271 271 270 269 267 264 262 260 257 250 244 237 230 226 224 220 214 209 204 201 199 198 196 198 201 202 202 201 200 200 200 201 201 203 204 207 210 213 214 216 217 219 220 222 223 224 224 224 223 222 221 221 221 222 223 224 224 225 225 227 229 231 234 236 238 240 241 242 243 244 244 243 241 240 239 238 234 227 219 211 204
262 263 265 267 270 271 271 271 271 269 266 264 262 257 248 240 233 227 223 222 219 216 212 206 202 200 200 199 199 200 200 200 200 200 200 200 201 202 204 206 208 211 213 215 216 216 217 219 221 223 225 225 225 224 223 222 221 222 222 223 224 224 225 226 227 229 232 234 235 237 238 240 241 243 244 243 242 241 239 237 234 229 221 213 205 199
259 260 263 267 268 269 271 275 275 273 270 267 262 256 249 241 232 226 223 220 216 212 209 205 202 202 203 202 201 200 200 199 200 200 200 201 202 203 205 208 210 212 214 215 216 216 217 218 221 224 225 226 226 225 223 222 222 222 223 223 224 224 225 226 228 230 231 233 235 236 238 239 241 242 243 243 241 239 236 234 229 223 215 207 200 194
255 258 262 265 266 268 272 277 279 277 274 268 263 257 250 241 233 227 224 219 213 208 205 202 203 204 206 205 204 202 202 201 201 201 201 202 202 203 206 209 212 214 215 216 216 216 217 218 221 224 226 227 227 226 225 223 223 223 223 224 224 225 226 227 228 230 231 233 234 236 237 239 240 241 242 241 239 236 233 229 224 216 208 201 195 189
252 256 260 261 263 265 271 276 278 278 275 272 268 263 255 246 237 230 224 218 212 207 205 204 204 206 206 206 205 204 203 204 204 204 202 202 202 204 208 211 214 215 216 216 216 216 217 218 221 223 225 227 227 227 226 224 223 223 224 225 225 226 226 228 229 230 231 233 234 236 237 238 240 241 241 239 236 232 228 224 217 209 202 196 191 185
251 254 256 258 259 261 266 271 275 277 277 278 275 267 257 247 238 231 224 217 211 208 206 205 204 203 204 205 205 204 204 205 206 205 203 204 205 207 209 212 215 216 218 218 217 217 217 218 221 223 225 227 228 228 227 225 224 224 224 225 226 227 227 228 229 230 231 233 234 235 237 238 239 239 238 235 231 227 223 218 210 203 197 192 187 183
250 252 253 254 255 258 260 264 268 272 275 278 273 263 251 240 231 224 218 212 208 206 205 203 201 200 202 204 204 203 204 205 204 203 203 205 207 209 211 214 217 218 219 219 218 217 217 218 221 223 225 227 229 229 228 227 225 224 224 225 226 227 228 229 229 230 231 233 234 235 237 238 238 237 235 231 227 223 218 211 204 198 193 188 184 182
248 249 250 251 252 253 255 257 259 261 265 270 272 265 254 240 228 218 211 207 205 203 203 201 200 201 203 204 204 204 204 204 202 201 202 205 207 209 212 216 219 221 221 221 219 217 217 219 221 223 226 228 229 230 230 228 226 224 224 224 226 227 228 229 230 230 232 233 234 236 236 237 236 235 232 227 223 219 213 207 200 194 190 186 183 182
248 247 247 247 247 247 248 248 248 249 252 258 265 269 263 247 229 216 209 206 205 205 203 201 201 203 205 206 206 206 205 203 201 201 203 206 208 211 213 217 221 223 223 221 219 218 217 218 221 223 226 228 230 231 231 230 228 226 225 224 225 226 227 228 229 230 232 233 234 236 236 236 235 232 229 224 220 215 210 203 197 193 188 185 184 183
249 247 245 245 244 244 243 242 241 240 242 246 252 259 263 253 232 218 212 211 209 208 206 205 205 206 207 207 208 208 206 204 202 202 204 207 211 214 216 219 223 225 224 221 219 219 218 219 221 224 226 228 230 232 232 230 229 227 226 225 225 226 227 228 229 230 232 233 234 235 236 235 233 230 226 222 217 212 206 200 196 192 189 187 185 184
250 247 245 244 243 243 242 239 236 234 235 238 243 247 252 252 241 229 221 217 213 210 208 209 210 210 210 210 210 208 205 204 204 205 207 209 213 217 220 222 225 227 226 221 219 219 219 220 222 224 226 228 230 232 232 232 230 228 227 226 226 226 227 228 229 230 231 233 234 235 235 234 232 228 224 219 215 210 204 200 196 194 191 189 187 187
249 247 246 244 243 242 241 238 234 231 231 233 236 239 241 241 240 236 231 223 218 214 212 211 212 212 212 209 205 203 203 204 206 207 209 211 214 218 221 224 227 229 228 222 217 216 219 222 224 225 226 229 230 232 233 233 232 230 229 227 227 227 227 228 228 230 231 232 234 235 235 234 231 227 222 218 213 208 204 201 198 196 193 191 189 189
246 246 245 243 242 240 239 236 232 229 227 228 230 231 232 230 227 225 224 222 220 218 217 217 216 215 213 207 201 199 202 204 206 207 208 212 216 219 222 225 228 230 231 226 219 216 218 222 224 226 227 228 230 232 233 233 233 232 231 230 229 228 228 228 228 229 230 231 233 234 234 233 231 226 222 217 212 208 205 203 200 198 196 193 191 191
243 243 243 241 239 237 236 233 229 226 223 222 222 224 224 222 219 216 214 215 217 219 220 222 222 220 217 211 206 205 206 207 206 207 209 213 218 221 224 227 229 231 232 231 226 222 221 223 225 226 227 228 229 231 232 233 232 232 231 231 230 229 229 228 228 229 229 230 231 232 233 232 230 226 221 216 212 209 207 204 202 200 199 196 194 193
242 242 241 239 236 234 231 229 226 223 219 217 217 218 218 218 216 213 210 210 212 215 217 219 219 218 215 214 213 213 213 212 211 210 211 215 219 223 226 228 230 230 231 230 229 228 228 229 229 229 228 228 229 230 230 231 232 232 231 230 229 229 228 228 228 229 229 229 230 231 232 231 229 226 221 217 213 211 208 205 203 201 201 199 198 196
241 240 239 237 234 231 228 226 223 220 217 215 215 215 216 215 214 211 209 207 208 211 214 214 213 211 211 211 213 215 215 215 215 215 216 219 221 223 225 227 228 229 229 228 227 227 228 230 231 231 229 229 229 229 229 230 230 231 231 229 228 228 228 228 228 228 229 229 229 230 231 230 229 226 222 217 214 212 210 207 204 202 202 201 200 200
240 239 238 235 232 229 226 223 221 219 217 215 215 215 215 215 214 212 208 206 206 208 211 212 211 210 209 209 211 212 213 213 215 217 219 221 222 222 224 226 227 228 228 228 228 227 226 228 230 230 229 228 228 228 229 229 229 229 230 229 228 227 227 227 227 228 228 229 229 230 230 230 229 226 223 218 215 213 211 208 205 203 202 202 202 203
239 238 237 235 231 228 224 222 220 219 218 217 216 216 216 215 214 211 208 206 204 205 206 208 209 209 210 211 211 211 211 212 214 216 219 220 221 222 223 226 228 230 230 230 230 229 228 229 230 230 230 228 227 227 227 227 227 227 227 227 227 227 227 227 227 227 227 228 228 229 230 229 229 227 224 219 216 213 212 209 206 204 203 203 203 204
238 237 235 234 231 228 225 223 222 221 220 219 218 217 215 214 213 210 208 206 204 203 203 204 205 207 209 212 214 215 215 216 217 218 219 220 221 223 225 228 230 232 232 232 232 230 229 229 229 229 229 229 229 227 226 226 225 225 225 225 226 226 226 226 226 226 226 227 228 228 229 229 228 227 225 220 216 213 212 210 207 205 204 204 204 205
238 236 234 233 231 228 226 225 224 224 224 222 220 218 216 214 212 210 208 207 206 206 206 206 206 206 208 211 213 215 217 219 221 222 222 222 223 224 225 228 231 233 234 234 234 233 230 227 226 226 226 227 228 228 228 226 224 223 224 225 225 226 226 226 226 226 226 226 227 227 228 228 227 227 225 221 217 214 212 211 208 205 204 204 204 205
237 235 233 232 230 229 228 227 227 227 227 225 223 220 217 214 212 211 209 209 209 209 210 210 210 210 212 214 215 216 216 218 220 222 223 224 224 225 226 227 229 231 232 232 233 232 231 229 227 226 225 225 226 227 228 227 226 225 224 224 225 225 226 226 226 226 226 225 225 226 226 226 226 224 223 221 218 214 212 210 207 205 203 203 204 205
236 234 233 232 231 230 229 229 229 229 228 226 224 221 218 215 212 211 210 210 211 211 212 212 213 214 215 217 218 218 217 217 218 220 221 223 224 225 225 226 227 228 229 228 228 228 229 228 228 228 227 227 226 226 226 226 226 226 224 223 223 224 225 226 226 226 226 225 225 225 224 224 223 222 221 220 218 215 213 211 208 205 203 203 203 204
236 234 232 232 232 231 230 230 230 230 229 227 224 221 218 215 212 210 210 210 211 212 213 214 215 216 217 219 219 218 217 216 216 218 219 220 222 223 224 224 225 226 226 225 225 225 225 225 225 226 226 227 227 228 227 226 226 225 224 224 224 225 226 226 226 226 226 225 225 224 223 223 223 222 220 219 218 217 215 213 209 206 203 203 203 204
236 234 233 232 231 230 230 230 230 229 229 227 225 222 219 216 213 211 210 209 210 212 214 216 216 216 216 217 218 217 216 215 215 215 216 217 218 220 222 222 222 223 222 222 222 222 222 222 222 223 224 225 226 227 227 227 226 225 225 225 226 226 226 226 226 226 225 225 224 224 222 222 222 222 220 218 217 216 215 213 210 206 204 203 204 204
236 235 234 232 231 230 230 229 229 228 228 226 225 223 221 218 215 212 211 211 211 212 214 215 216 216 215 215 216 216 215 215 214 214 213 214 215 217 219 220 221 221 221 220 219 219 219 219 221 223 224 225 226 226 227 226 225 224 224 224 224 223 222 223 224 224 224 224 224 223 221 221 221 220 219 217 216 215 214 212 210 206 204 203 203 204
237 236 234 232 231 230 229 228 228 227 227 225 225 224 222 220 216 213 212 213 213 214 215 216 217 217 216 216 214 213 213 212 212 212 211 211 213 215 217 218 219 220 221 220 218 216 216 216 218 220 222 223 225 226 227 227 226 224 223 223 223 223 223 224 224 223 222 223 222 222 221 220 220 219 218 216 215 214 213 212 209 206 204 203 203 203
237 236 234 233 231 230 228 227 227 227 226 226 225 224 223 221 217 214 214 214 215 215 216 217 216 215 214 215 214 212 209 207 207 209 209 210 210 212 215 217 219 220 221 222 222 220 217 215 215 217 219 220 223 225 226 226 226 225 224 223 223 224 225 226 227 225 224 223 222 221 220 219 219 218 218 216 214 212 212 211 209 206 204 202 202 202
237 235 235 234 232 231 229 228 227 226 226 225 225 224 223 221 219 216 215 215 216 216 217 218 217 215 214 215 214 211 207 205 204 205 207 208 210 211 212 215 217 219 221 222 222 223 222 219 218 217 217 218 220 222 223 224 225 225 224 222 222 222 223 224 225 225 225 225 223 222 219 218 218 218 217 215 213 211 210 210 208 206 204 202 201 201
235 234 234 233 232 231 230 228 226 225 225 225 224 224 223 222 220 218 216 216 216 217 217 217 217 217 217 217 216 212 207 204 203 204 206 207 209 211 211 213 215 217 218 219 220 220 221 222 221 220 218 217 218 219 220 220 222 223 223 221 220 220 220 221 221 222 223 224 224 222 219 218 217 217 216 214 212 210 209 208 207 206 203 202 201 201
235 234 233 232 232 230 229 227 226 225 224 224 224 224 223 222 220 219 217 217 216 217 216 215 215 215 217 218 217 214 210 207 205 205 205 207 209 210 211 212 213 214 215 216 216 217 217 218 219 220 221 220 219 219 218 218 218 219 220 220 219 219 220 220 220 220 221 222 222 222 220 219 218 217 216 214 211 209 208 207 206 205 203 201 201 200
236 234 233 232 231 229 228 227 225 224 223 223 223 223 222 222 221 219 218 217 216 216 215 214 214 215 216 216 217 215 213 210 208 206 206 208 209 210 211 212 212 212 212 212 213 213 214 215 215 216 218 220 222 221 219 218 216 216 217 217 217 217 218 219 219 219 220 220 220 220 220 220 220 220 218 215 212 209 208 207 206 205 203 201 200 200
236 235 234 232 231 229 228 227 226 224 223 223 223 222 222 221 220 219 218 217 216 216 215 215 215 216 216 216 216 214 212 211 209 208 208 210 211 211 211 212 212 211 210 209 210 210 210 212 214 214 214 215 218 220 220 218 216 215 215 215 215 215 215 216 217 217 218 218 217 217 217 218 219 220 219 216 213 210 208 207 206 205 203 202 201 200
237 236 235 233 231 230 229 228 226 225 224 223 223 223 222 220 219 218 217 217 216 215 215 215 215 216 217 217 216 215 213 212 211 210 210 212 213 213 213 213 212 210 208 207 207 208 208 209 212 214 215 215 214 214 216 216 214 213 213 213 213 212 212 212 213 214 215 215 215 214 215 216 217 217 217 216 213 211 208 207 206 205 203 202 201 200
Height
1468 1468 1468 1469 1469 1469 1469 1470 1471 1472 1472 1473 1474 1475 1475 1476 1476 1476 1476 1476 1476 1477 1477 1478 1478 1479 1479 1479 1480 1481 1482 1482 1483 1484 1486 1487 1489 1491 1492 1494 1497 1499 1501 1503 1505 1507 1508 1508 1509 1510 1511 1512 1512 1513 1514 1515 1516 1517 1518 1519 1519 1520 1519 1520 1520 1521 1522 1522 1523 1523 1523 1524 1524 1525 1525 1526 1526 1527 1527 1527 1527 1527 1528 1528 1529 1529
1466 1466 1466 1466 1466 1466 1466 1466 1467 1468 1469 1470 1471 1471 1472 1472 1472 1473 1472 1472 1472 1472 1474 1474 1475 1476 1476 1476 1477 1478 1478 1479 1481 1482 1484 1485 1487 1488 1490 1492 1494 1497 1498 1501 1503 1505 1506 1506 1507 1508 1509 1510 1511 1511 1512 1513 1514 1515 1516 1517 1518 1518 1519 1519 1519 1520 1521 1521 1521 1521 1522 1522 1522 1523 1524 1525 1525 1526 1526 1526 1527 1527 1527 1527 1528 1528
1463 1463 1463 1463 1463 1463 1463 1463 1464 1464 1465 1466 1467 1467 1468 1468 1468 1468 1468 1468 1468 1469 1469 1470 1471 1472 1472 1473 1474 1474 1475 1476 1478 1480 1482 1484 1485 1487 1488 1490 1492 1494 1496 1498 1501 1502 1503 1504 1505 1506 1507 1508 1509 1510 1511 1512 1513 1514 1514 1515 1516 1517 1517 1517 1518 1518 1519 1519 1520 1520 1520 1521 1522 1522 1523 1523 1524 1524 1525 1525 1526 1526 1526 1526 1527 1527
1460 1460 1460 1460 1460 1460 1460 1460 1461 1461 1462 1462 1462 1463 1463 1463 1463 1464 1464 1464 1464 1465 1465 1466 1466 1467 1468 1470 1471 1471 1472 1474 1476 1478 1480 1482 1484 1486 1487 1489 1490 1492 1494 1497 1499 1500 1502 1502 1503 1504 1505 1506 1507 1508 1509 1510 1511 1512 1513 1514 1514 1515 1515 1516 1516 1517 1517 1518 1518 1519 1519 1520 1521 1521 1522 1522 1523 1524 1524 1525 1525 1525 1525 1525 1525 1526
1457 1457 1457 1458 1458 1457 1457 1458 1458 1458 1458 1459 1459 1459 1459 1459 1459 1460 1460 1460 1461 1461 1461 1462 1462 1463 1464 1466 1467 1468 1469 1471 1473 1476 1478 1481 1482 1484 1486 1487 1488 1490 1492 1495 1497 1498 1499 1500 1501 1502 1502 1503 1505 1506 1507 1508 1509 1510 1511 1512 1513 1513 1514 1514 1514 1515 1516 1517 1517 1518 1519 1519 1520 1520 1521 1522 1522 1523 1523 1523 1523 1523 1524 1524 1524 1525
1454 1455 1455 1456 1456 1455 1455 1455 1455 1456 1456 1456 1456 1456 1456 1456 1456 1456 1457 1457 1457 1458 1458 1459 1459 1460 1461 1462 1463 1465 1466 1468 1470 1473 1476 1478 1481 1482 1484 1486 1487 1488 1490 1492 1495 1496 1497 1498 1498 1499 1500 1502 1502 1504 1505 1506 1507 1508 1509 1511 1512 1512 1513 1513 1513 1513 1513 1515 1516 1517 1517 1518 1518 1519 1520 1520 1521 1522 1522 1522 1522 1522 1522 1522 1523 1524
1452 1452 1453 1453 1453 1453 1453 1452 1452 1453 1453 1453 1453 1453 1453 1453 1453 1453 1453 1454 1454 1455 1456 1457 1457 1457 1458 1459 1460 1462 1464 1466 1468 1471 1473 1476 1478 1481 1482 1484 1485 1487 1488 1491 1492 1494 1495 1496 1497 1497 1498 1499 1501 1502 1503 1504 1505 1506 1507 1508 1509 1510 1511 1512 1511 1511 1512 1513 1514 1515 1516 1517 1517 1518 1518 1519 1520 1520 1521 1521 1521 1521 1521 1521 1522 1523
1450 1450 1450 1450 1450 1450 1450 1450 1450 1450 1450 1450 1450 1450 1450 1450 1450 1450 1451 1452 1452 1453 1454 1455 1456 1456 1457 1457 1459 1461 1462 1464 1467 1469 1471 1473 1476 1478 1480 1482 1483 1485 1487 1488 1490 1492 1493 1494 1494 1495 1496 1497 1498 1500 1501 1502 1503 1504 1506 1507 1507 1508 1509 1510 1510 1510 1510 1511 1512 1513 1514 1515 1516 1516 1517 1517 1518 1519 1519 1519 1519 1519 1520 1520 1521 1522
1448 1447 1447 1447 1447 1447 1447 1447 1447 1447 1447 1448 1447 1447 1447 1447 1447 1448 1449 1449 1450 1451 1452 1453 1454 1455 1456 1457 1458 1459 1461 1462 1464 1466 1468 1470 1473 1476 1477 1479 1481 1482 1484 1486 1488 1490 1491 1492 1492 1493 1494 1495 1497 1498 1499 1500 1501 1502 1503 1505 1506 1506 1507 1508 1508 1508 1509 1509 1510 1511 1512 1513 1514 1515 1515 1516 1517 1517 1518 1518 1518 1518 1518 1519 1520 1520
1446 1446 1445 1445 1445 1445 1445 1445 1445 1445 1445 1445 1445 1445 1445 1445 1445 1446 1447 1447 1448 1450 1451 1452 1453 1454 1455 1456 1458 1459 1460 1461 1462 1464 1466 1467 1470 1472 1474 1477 1478 1480 1482 1484 1486 1487 1489 1489 1490 1491 1492 1493 1495 1496 1497 1498 1499 1500 1502 1503 1504 1504 1505 1506 1507 1507 1507 1508 1509 1510 1511 1512 1512 1513 1514 1515 1516 1516 1517 1517 1517 1517 1517 1518 1518 1519
1443 1443 1443 1442 1442 1442 1442 1442 1442 1442 1443 1443 1443 1442 1443 1443 1443 1444 1445 1446 1447 1448 1450 1451 1452 1453 1454 1456 1457 1459 1460 1461 1462 1464 1465 1467 1468 1470 1472 1474 1476 1478 1480 1482 1484 1486 1487 1487 1488 1489 1490 1492 1493 1494 1495 1496 1497 1498 1500 1501 1502 1502 1503 1504 1505 1506 1506 1507 1507 1508 1509 1510 1511 1512 1512 1513 1514 1515 1515 1515 1515 1516 1516 1517 1517 1518
1441 1441 1441 1440 1440 1440 1440 1440 1440 1440 1440 1441 1441 1441 1440 1440 1441 1442 1442 1443 1445 1447 1448 1449 1451 1452 1453 1455 1456 1457 1458 1459 1461 1462 1464 1466 1467 1469 1471 1472 1475 1477 1478 1480 1482 1483 1484 1485 1486 1487 1489 1490 1491 1492 1493 1494 1495 1497 1498 1499 1500 1501 1502 1502 1503 1504 1505 1505 1506 1507 1508 1508 1509 1510 1511 1512 1512 1513 1513 1514 1514 1514 1515 1515 1516 1517
1439 1439 1438 1438 1437 1437 1437 1437 1437 1437 1438 1438 1438 1438 1437 1438 1439 1440 1441 1442 1443 1444 1446 1447 1449 1451 1452 1453 1454 1455 1456 1457 1459 1460 1462 1463 1464 1466 1468 1470 1472 1474 1476 1478 1480 1481 1482 1483 1484 1486 1487 1488 1489 1491 1492 1492 1493 1495 1496 1497 1498 1499 1500 1501 1502 1502 1503 1504 1505 1505 1506 1507 1508 1508 1509 1510 1511 1512 1512 1512 1512 1513 1513 1514 1515 1515
1436 1436 1436 1435 1435 1435 1435 1435 1435 1435 1435 1435 1435 1436 1436 1437 1437 1438 1439 1440 1442 1443 1444 1446 1447 1449 1451 1452 1453 1453 1454 1455 1457 1459 1461 1462 1462 1464 1466 1467 1470 1472 1474 1476 1477 1479 1480 1481 1482 1484 1485 1487 1488 1489 1490 1491 1492 1493 1494 1495 1496 1497 1498 1499 1500 1501 1502 1502 1503 1504 1505 1506 1506 1507 1507 1508 1509 1510 1511 1511 1511 1512 1512 1512 1513 1514
1434 1433 1433 1433 1432 1432 1432 1432 1432 1432 1432 1433 1434 1434 1435 1435 1436 1436 1437 1438 1440 1441 1443 1445 1446 1447 1449 1450 1451 1452 1452 1454 1456 1457 1459 1461 1462 1463 1465 1466 1468 1471 1472 1474 1476 1477 1478 1480 1481 1482 1484 1485 1486 1487 1488 1489 1490 1491 1492 1493 1494 1495 1496 1497 1498 1499 1500 1501 1502 1502 1503 1504 1505 1505 1506 1507 1508 1508 1509 1509 1510 1510 1511 1511 1512 1513
1431 1431 1431 1430 1430 1430 1430 1430 1430 1430 1431 1432 1432 1432 1432 1433 1433 1434 1435 1435 1437 1439 1441 1442 1444 1446 1447 1447 1448 1449 1451 1452 1454 1456 1458 1460 1461 1462 1464 1465 1467 1469 1471 1473 1474 1476 1477 1479 1480 1482 1482 1484 1485 1485 1486 1487 1488 1489 1491 1492 1493 1494 1495 1496 1497 1498 1498 1499 1500 1501 1502 1503 1503 1504 1505 1505 1506 1507 1507 1508 1508 1509 1509 1510 1511 1512
1428 1428 1428 1428 1427 1427 1427 1427 1428 1428 1429 1429 1430 1430 1430 1430 1431 1432 1432 1433 1434 1436 1437 1439 1441 1443 1444 1446 1447 1448 1449 1451 1452 1454 1457 1458 1460 1461 1463 1464 1466 1468 1470 1472 1473 1475 1476 1478 1479 1480 1481 1482 1483 1484 1485 1486 1487 1488 1489 1490 1491 1492 1493 1494 1495 1496 1497 1498 1498 1499 1500 1501 1502 1502 1503 1504 1505 1505 1506 1506 1507 1507 1508 1509 1510 1511
1425 1425 1425 1425 1425 1425 1425 1425 1426 1426 1427 1427 1427 1427 1428 1428 1429 1430 1430 1430 1431 1432 1433 1435 1437 1438 1439 1442 1444 1445 1447 1448 1450 1452 1455 1457 1458 1460 1461 1463 1465 1467 1468 1470 1472 1474 1475 1477 1478 1479 1480 1481 1482 1482 1483 1484 1485 1486 1487 1489 1490 1491 1492 1493 1494 1495 1496 1496 1497 1498 1499 1500 1500 1501 1502 1502 1503 1504 1504 1505 1505 1506 1507 1507 1508 1509
1422 1423 1423 1423 1423 1423 1423 1423 1423 1423 1424 1424 1425 1425 1426 1427 1427 1428 1428 1428 1428 1429 1430 1432 1433 1434 1436 1437 1439 1442 1444 1446 1448 1451 1453 1455 1457 1458 1460 1462 1464 1466 1467 1469 1471 1472 1474 1476 1477 1478 1479 1480 1480 1481 1482 1483 1484 1485 1486 1487 1488 1489 1490 1491 1492 1493 1494 1495 1496 1497 1497 1498 1499 1499 1500 1501 1502 1502 1503 1503 1504 1504 1505 1506 1507 1508
1420 1420 1420 1421 1421 1421 1420 1420 1420 1421 1421 1422 1422 1423 1424 1424 1425 1426 1426 1426 1427 1428 1429 1430 1431 1432 1433 1435 1437 1439 1442 1444 1447 1449 1451 1453 1455 1457 1459 1461 1462 1464 1466 1468 1470 1471 1473 1474 1476 1477 1477 1478 1479 1480 1481 1482 1483 1484 1485 1486 1487 1488 1489 1490 1491 1492 1492 1493 1494 1495 1496 1497 1497 1498 1498 1499 1500 1501 1501 1502 1502 1503 1504 1505 1506 1507
1418 1417 1418 1419 1419 1418 1417 1417 1418 1418 1419 1420 1420 1421 1421 1422 1422 1423 1423 1424 1426 1427 1428 1428 1429 1430 1432 1433 1435 1438 1441 1443 1445 1447 1449 1452 1453 1455 1457 1459 1461 1463 1465 1467 1468 1470 1472 1473 1474 1475 1476 1477 1478 1479 1480 1481 1482 1482 1484 1485 1486 1487 1487 1489 1489 1490 1491 1492 1493 1494 1495 1495 1496 1497 1497 1498 1499 1499 1500 1500 1501 1502 1503 1504 1505 1506
1415 1415 1416 1417 1417 1416 1416 1416 1416 1417 1417 1417 1417 1418 1418 1419 1419 1420 1421 1422 1423 1425 1426 1428 1429 1430 1431 1433 1435 1438 1440 1442 1444 1445 1447 1449 1452 1453 1455 1457 1459 1461 1463 1465 1467 1468 1470 1471 1472 1473 1475 1476 1477 1477 1478 1479 1480 1481 1482 1483 1484 1485 1486 1487 1488 1489 1490 1491 1492 1492 1493 1494 1494 1495 1496 1497 1497 1498 1498 1499 1500 1501 1502 1503 1504 1505
1413 1413 1414 1415 1415 1414 1414 1414 1414 1414 1414 1415 1415 1415 1416 1417 1417 1418 1419 1420 1422 1423 1425 1427 1428 1429 1431 1433 1436 1438 1440 1442 1443 1444 1446 1447 1449 1451 1453 1456 1457 1460 1462 1463 1465 1467 1468 1469 1471 1472 1473 1474 1475 1476 1477 1478 1479 1480 1481 1482 1483 1484 1485 1486 1487 1488 1489 1489 1490 1491 1492 1492 1493 1494 1494 1495 1496 1496 1497 1498 1499 1500 1501 1502 1503 1504
1411 1412 1412 1412 1412 1412 1413 1412 1412 1412 1412 1412 1413 1414 1415 1416 1417 1418 1419 1420 1421 1422 1424 1425 1427 1429 1431 1433 1435 1437 1438 1440 1441 1442 1444 1446 1448 1450 1452 1454 1456 1458 1460 1462 1464 1465 1467 1468 1469 1470 1472 1473 1474 1475 1476 1477 1478 1479 1480 1481 1482 1483 1484 1485 1486 1486 1487 1488 1489 1490 1490 1491 1492 1492 1493 1494 1494 1495 1496 1497 1498 1499 1500 1501 1502 1503
1409 1410 1410 1410 1411 1411 1411 1411 1411 1411 1411 1411 1412 1412 1413 1414 1416 1417 1418 1420 1421 1422 1423 1425 1426 1428 1430 1432 1433 1434 1436 1437 1439 1441 1443 1445 1447 1449 1451 1453 1454 1456 1458 1460 1462 1464 1465 1466 1467 1468 1470 1471 1472 1473 1474 1475 1476 1477 1478 1479 1480 1481 1482 1483 1484 1485 1486 1487 1487 1488 1489 1490 1490 1491 1492 1492 1493 1494 1495 1496 1497 1498 1499 1500 1501 1502
1407 1407 1408 1408 1409 1409 1409 1409 1409 1409 1409 1409 1410 1410 1411 1412 1414 1415 1417 1418 1419 1421 1422 1424 1425 1426 1427 1429 1431 1432 1433 1435 1437 1439 1441 1443 1445 1447 1450 1452 1453 1454 1456 1458 1461 1462 1463 1465 1466 1467 1468 1469 1471 1472 1473 1474 1475 1476 1477 1478 1479 1480 1481 1482 1482 1483 1484 1485 1486 1487 1487 1488 1489 1490 1490 1491 1492 1492 1493 1495 1496 1497 1498 1499 1500 1502
1405 1405 1406 1406 1407 1407 1407 1407 1408 1408 1408 1408 1408 1408 1409 1410 1412 1414 1416 1417 1418 1419 1421 1422 1424 1425 1427 1428 1429 1430 1432 1434 1436 1438 1440 1442 1444 1446 1448 1450 1451 1452 1454 1457 1459 1460 1462 1463 1464 1465 1467 1467 1469 1470 1471 1472 1473 1474 1475 1476 1477 1478 1479 1480 1481 1482 1483 1484 1484 1485 1486 1487 1487 1488 1489 1490 1490 1491 1492 1493 1495 1496 1497 1498 1499 1501
1402 1403 1403 1404 1405 1405 1406 1406 1406 1407 1407 1407 1407 1407 1407 1408 1410 1411 1413 1415 1417 1418 1420 1422 1423 1424 1425 1426 1427 1429 1431 1433 1435 1436 1438 1440 1442 1444 1446 1448 1449 1451 1452 1455 1457 1458 1460 1461 1462 1463 1465 1466 1467 1468 1469 1471 1472 1473 1474 1475 1476 1477 1478 1479 1480 1481 1481 1482 1483 1484 1485 1485 1486 1487 1487 1488 1489 1490 1491 1492 1493 1495 1496 1497 1498 1500
1400 1401 1401 1402 1402 1403 1404 1404 1404 1405 1405 1405 1405 1406 1406 1407 1407 1409 1410 1413 1415 1417 1419 1421 1422 1423 1424 1425 1427 1428 1430 1432 1433 1435 1437 1439 1441 1443 1444 1446 1447 1448 1450 1453 1455 1457 1458 1459 1460 1462 1463 1464 1465 1467 1468 1469 1470 1471 1472 1473 1474 1475 1476 1477 1478 1479 1480 1481 1482 1482 1483 1484 1485 1485 1486 1487 1488 1489 1490 1491 1492 1493 1494 1496 1497 1498
1397 1398 1399 1400 1401 1401 1402 1402 1402 1403 1403 1404 1404 1404 1405 1406 1407 1408 1409 1411 1414 1416 1418 1419 1421 1422 1422 1424 1425 1427 1429 1430 1431 1433 1435 1437 1439 1441 1442 1443 1445 1446 1448 1451 1453 1455 1456 1457 1458 1460 1461 1462 1463 1465 1466 1467 1468 1469 1470 1472 1472 1474 1475 1476 1477 1477 1478 1479 1480 1481 1482 1482 1483 1484 1485 1486 1487 1488 1489 1490 1491 1492 1493 1495 1496 1497
1395 1396 1396 1397 1398 1399 1400 1400 1401 1401 1402 1402 1402 1403 1403 1405 1406 1407 1408 1410 1412 1414 1416 1417 1419 1420 1421 1422 1423 1425 1426 1427 1429 1432 1433 1435 1437 1438 1440 1441 1442 1444 1446 1448 1450 1452 1453 1454 1456 1457 1459 1460 1462 1463 1464 1465 1467 1468 1469 1470 1471 1472 1473 1474 1475 1476 1477 1478 1479 1479 1480 1481 1482 1482 1483 1484 1485 1486 1487 1488 1489 1491 1492 1493 1495 1496
1392 1393 1393 1394 1396 1396 1397 1398 1398 1399 1399 1400 1400 1401 1401 1402 1404 1405 1407 1408 1410 1412 1414 1416 1417 1419 1420 1421 1422 1423 1424 1426 1427 1430 1432 1433 1434 1436 1437 1439 1440 1442 1444 1446 1447 1448 1449 1451 1452 1455 1456 1458 1459 1461 1462 1463 1465 1466 1467 1468 1470 1471 1472 1473 1474 1475 1476 1476 1477 1478 1478 1479 1480 1481 1482 1483 1484 1485 1486 1487 1488 1489 1491 1492 1493 1494
1389 1390 1391 1392 1393 1394 1394 1395 1396 1397 1397 1397 1398 1398 1399 1400 1402 1403 1405 1407 1408 1410 1412 1413 1414 1416 1418 1420 1421 1422 1424 1425 1427 1428 1430 1431 1432 1434 1435 1437 1438 1440 1442 1443 1445 1447 1447 1448 1450 1452 1454 1455 1457 1458 1460 1462 1463 1464 1465 1467 1468 1469 1470 1471 1472 1473 1474 1475 1476 1476 1477 1477 1478 1479 1480 1482 1482 1483 1484 1486 1487 1488 1489 1491 1492 1493
1387 1388 1389 1390 1390 1391 1392 1393 1394 1394 1395 1395 1396 1396 1397 1398 1399 1401 1403 1405 1406 1408 1409 1410 1412 1413 1415 1417 1419 1420 1422 1424 1426 1427 1427 1428 1429 1431 1432 1434 1435 1437 1439 1440 1442 1444 1445 1446 1448 1450 1452 1453 1455 1456 1457 1459 1461 1462 1463 1465 1466 1467 1468 1469 1470 1471 1472 1473 1474 1475 1475 1476 1477 1478 1479 1480 1481 1482 1483 1484 1486 1487 1488 1490 1491 1492
1384 1385 1386 1387 1387 1388 1389 1390 1391 1392 1393 1393 1394 1394 1395 1396 1397 1399 1401 1402 1404 1406 1407 1408 1410 1411 1413 1414 1415 1417 1419 1421 1423 1424 1425 1426 1427 1428 1430 1431 1432 1433 1435 1437 1439 1441 1442 1443 1445 1447 1449 1451 1452 1454 1455 1457 1458 1460 1461 1463 1464 1465 1466 1467 1468 1470 1471 1472 1472 1473 1474 1474 1475 1476 1477 1478 1479 1480 1482 1483 1484 1486 1487 1488 1490 1491
1381 1382 1382 1384 1385 1386 1386 1387 1388 1390 1391 1392 1392 1392 1393 1394 1396 1397 1399 1401 1402 1404 1405 1407 1409 1411 1412 1413 1414 1416 1417 1419 1421 1422 1422 1423 1425 1426 1427 1427 1429 1431 1432 1434 1436 1437 1439 1441 1442 1444 1446 1448 1449 1451 1452 1454 1456 1458 1459 1461 1462 1463 1464 1465 1467 1468 1469 1470 1471 1471 1472 1473 1474 1475 1476 1477 1478 1479 1480 1482 1483 1484 1486 1487 1488 1490
1377 1378 1379 1381 1382 1382 1383 1384 1386 1387 1388 1389 1390 1391 1392 1393 1394 1396 1397 1399 1401 1402 1404 1406 1407 1409 1411 1412 1413 1415 1417 1418 1419 1420 1421 1422 1422 1423 1424 1425 1426 1427 1429 1431 1432 1434 1436 1438 1440 1442 1443 1445 1446 1447 1449 1451 1453 1455 1457 1458 1459 1461 1462 1463 1465 1466 1467 1468 1469 1470 1471 1472 1472 1473 1474 1476 1477 1478 1479 1480 1482 1483 1484 1486 1487 1488
1374 1375 1376 1377 1379 1380 1381 1382 1383 1384 1385 1387 1388 1389 1390 1391 1393 1395 1397 1398 1400 1401 1402 1404 1405 1407 1408 1410 1412 1413 1415 1416 1417 1418 1418 1419 1420 1421 1421 1422 1423 1425 1426 1427 1429 1431 1432 1434 1436 1438 1439 1441 1442 1444 1446 1448 1450 1452 1454 1456 1457 1459 1460 1461 1462 1464 1465 1466 1467 1468 1469 1470 1471 1472 1473 1474 1475 1476 1477 1478 1480 1481 1483 1484 1486 1487
1371 1372 1373 1374 1376 1377 1378 1379 1380 1382 1383 1384 1386 1387 1388 1390 1392 1393 1395 1396 1398 1399 1400 1402 1403 1405 1406 1408 1409 1411 1412 1413 1415 1415 1416 1417 1417 1418 1418 1419 1420 1422 1423 1425 1426 1428 1429 1431 1432 1433 1435 1437 1439 1441 1443 1446 1447 1450 1452 1454 1455 1457 1458 1459 1460 1462 1463 1464 1465 1467 1467 1468 1469 1470 1471 1472 1473 1474 1475 1476 1477 1479 1481 1482 1483 1485
1367 1369 1370 1371 1373 1374 1375 1377 1378 1379 1381 1382 1383 1385 1386 1388 1389 1391 1392 1394 1395 1397 1398 1399 1401 1402 1404 1406 1407 1408 1410 1411 1412 1413 1414 1414 1415 1416 1416 1417 1418 1419 1420 1422 1423 1425 1426 1427 1429 1430 1432 1434 1436 1438 1440 1443 1445 1447 1449 1451 1452 1453 1455 1456 1458 1460 1461 1462 1463 1464 1465 1466 1467 1468 1469 1471 1472 1472 1473 1474 1476 1477 1479 1480 1482 1483
1364 1366 1367 1368 1370 1372 1373 1374 1376 1377 1378 1379 1381 1382 1384 1385 1387 1388 1389 1391 1392 1394 1396 1397 1399 1400 1402 1403 1405 1406 1407 1408 1409 1410 1411 1412 1413 1413 1414 1415 1416 1417 1418 1419 1420 1422 1423 1425 1427 1428 1430 1432 1433 1435 1437 1440 1442 1444 1446 1447 1448 1450 1452 1454 1456 1457 1459 1460 1462 1462 1463 1465 1466 1467 1468 1469 1470 1471 1472 1473 1475 1476 1477 1479 1480 1481
1361 1362 1364 1366 1367 1369 1370 1372 1373 1374 1375 1377 1378 1380 1381 1382 1383 1385 1386 1388 1390 1391 1393 1395 1396 1398 1400 1401 1402 1403 1405 1406 1407 1408 1409 1410 1411 1411 1412 1412 1414 1415 1416 1417 1418 1420 1421 1423 1424 1426 1427 1428 1431 1433 1435 1437 1440 1442 1443 1445 1447 1449 1451 1452 1454 1455 1457 1458 1459 1461 1462 1463 1464 1465 1466 1467 1469 1470 1471 1472 1474 1475 1476 1477 1479 1481
1358 1360 1361 1363 1364 1365 1367 1368 1370 1371 1372 1374 1376 1377 1378 1380 1381 1382 1384 1386 1387 1389 1390 1392 1394 1395 1397 1398 1400 1401 1402 1403 1404 1406 1407 1408 1408 1409 1410 1411 1412 1413 1414 1415 1417 1418 1419 1421 1422 1423 1424 1426 1428 1430 1432 1435 1437 1439 1441 1442 1444 1446 1448 1449 1450 1452 1454 1456 1457 1458 1459 1461 1462 1463 1464 1466 1467 1469 1470 1471 1472 1474 1475 1477 1478 1479
1356 1357 1358 1360 1361 1362 1364 1365 1366 1368 1369 1371 1372 1374 1376 1377 1379 1380 1382 1383 1385 1387 1388 1390 1391 1393 1395 1396 1397 1398 1400 1401 1402 1403 1405 1406 1407 1407 1408 1410 1411 1412 1413 1414 1415 1416 1417 1419 1420 1421 1423 1424 1426 1428 1430 1432 1434 1436 1437 1439 1441 1442 1443 1444 1447 1449 1452 1453 1455 1456 1457 1459 1460 1462 1463 1464 1466 1467 1468 1469 1471 1472 1474 1475 1477 1478
1353 1354 1355 1356 1357 1359 1360 1362 1363 1365 1366 1368 1369 1371 1372 1374 1376 1377 1379 1381 1382 1384 1386 1387 1389 1391 1392 1393 1395 1396 1397 1399 1400 1402 1403 1404 1405 1406 1407 1408 1409 1411 1412 1412 1413 1414 1415 1416 1417 1419 1421 1423 1425 1426 1428 1430 1432 1433 1435 1437 1438 1440 1442 1444 1446 1448 1450 1451 1453 1454 1456 1457 1458 1460 1461 1462 1464 1465 1466 1468 1469 1471 1472 1474 1476 1477
1349 1350 1352 1353 1354 1355 1357 1358 1360 1362 1363 1365 1366 1368 1369 1371 1373 1374 1376 1378 1380 1381 1383 1384 1386 1387 1389 1390 1392 1393 1395 1397 1398 1399 1401 1402 1403 1404 1405 1407 1408 1409 1410 1411 1412 1413 1414 1415 1416 1417 1419 1421 1422 1424 1425 1427 1429 1431 1432 1434 1436 1438 1440 1442 1444 1446 1447 1449 1451 1452 1454 1455 1457 1458 1459 1460 1462 1463 1465 1466 1467 1469 1471 1472 1474 1476
1345 1347 1348 1349 1351 1352 1353 1355 1357 1358 1360 1362 1363 1364 1366 1368 1369 1371 1373 1375 1377 1379 1380 1382 1383 1385 1386 1387 1388 1390 1392 1393 1395 1397 1398 1399 1401 1402 1403 1405 1406 1408 1409 1410 1411 1412 1413 1414 1416 1417 1417 1419 1420 1422 1423 1425 1427 1428 1430 1432 1433 1435 1437 1439 1441 1443 1445 1447 1448 1450 1452 1453 1455 1456 1457 1458 1460 1462 1463 1465 1466 1468 1470 1471 1473 1475
1342 1343 1345 1346 1347 1349 1350 1352 1353 1355 1356 1358 1359 1361 1363 1364 1366 1368 1370 1372 1373 1376 1377 1379 1381 1382 1383 1385 1386 1388 1389 1391 1392 1394 1395 1397 1398 1400 1401 1402 1404 1406 1407 1408 1409 1411 1412 1413 1414 1415 1416 1417 1418 1419 1421 1422 1424 1426 1427 1429 1431 1433 1434 1436 1438 1441 1443 1445 1447 1448 1450 1451 1452 1453 1455 1457 1458 1460 1461 1463 1465 1466 1468 1470 1472 1473
1339 1340 1342 1343 1344 1346 1347 1348 1349 1351 1353 1354 1356 1358 1359 1361 1363 1365 1366 1368 1370 1372 1374 1376 1377 1378 1380 1382 1384 1386 1387 1389 1390 1392 1393 1394 1396 1397 1399 1400 1402 1403 1405 1406 1407 1409 1410 1411 1412 1413 1415 1416 1417 1417 1419 1421 1422 1424 1426 1427 1429 1431 1432 1435 1437 1439 1441 1442 1444 1446 1448 1449 1451 1452 1453 1455 1456 1458 1459 1461 1463 1465 1467 1468 1470 1472
1337 1337 1338 1340 1341 1342 1343 1344 1346 1348 1349 1351 1352 1354 1356 1358 1360 1362 1363 1365 1367 1369 1371 1372 1374 1375 1377 1379 1381 1383 1385 1386 1388 1389 1391 1392 1393 1395 1396 1398 1400 1401 1403 1404 1406 1407 1408 1410 1411 1412 1412 1414 1415 1416 1417 1419 1421 1422 1424 1425 1427 1428 1430 1432 1435 1437 1438 1440 1442 1444 1446 1447 1449 1451 1452 1454 1455 1457 1458 1460 1461 1463 1465 1467 1468 1470
1334 1335 1336 1337 1338 1339 1340 1342 1343 1344 1346 1347 1349 1351 1353 1355 1357 1358 1361 1362 1364 1366 1368 1369 1371 1372 1374 1376 1378 1380 1381 1383 1385 1387 1388 1389 1391 1392 1394 1395 1397 1399 1400 1402 1403 1405 1406 1407 1409 1410 1411 1411 1412 1413 1415 1416 1418 1420 1421 1422 1424 1426 1428 1430 1432 1434 1436 1438 1440 1442 1444 1445 1447 1448 1450 1452 1453 1455 1457 1458 1459 1461 1463 1465 1467 1468